When you browse on this site, cookies collect data to enhance your experience and personalize the content and advertising you see.
Visit our Privacy Policy to learn more. By continuing to use the site, you agree to this use of cookies and data.
  • In Österreich
  • Länderverzeichnis
  • Für 7 Tage
  • Wassertemperatur
  • Satellitenkarten
  • Wetterkarte
  • News
  • Widgets
  • user-avatar
    Anmelden

    Stündliche Wetter San Luis

    Heute, 21 November, Mittwoch

    Zeit Temperatur Niederschläge Wind Luftdruck Luftfeuchtigkeit
    00:00 +28°C° 0 mm 8 m/S 695 mmHg 39%
    01:00 +27°C° 0 mm 9 m/S 695 mmHg 42%
    02:00 +27°C° 0 mm 9 m/S 694 mmHg 44%
    03:00 +26°C° 0 mm 9 m/S 694 mmHg 47%
    04:00 +26°C° 0 mm 8 m/S 694 mmHg 50%
    05:00 +24°C° 0 mm 7 m/S 694 mmHg 53%
    06:00 +27°C° 0 mm 7 m/S 695 mmHg 50%
    07:00 +29°C° 0 mm 7 m/S 695 mmHg 46%
    08:00 +30°C° 0 mm 7 m/S 696 mmHg 42%
    09:00 +33°C° 0 mm 7 m/S 696 mmHg 37%
    10:00 +35°C° 0 mm 6 m/S 695 mmHg 32%
    11:00 +36°C° 0 mm 5 m/S 695 mmHg 27%
    12:00 +37°C° 0 mm 5 m/S 695 mmHg 25%
    13:00 +39°C° 0 mm 5 m/S 694 mmHg 23%
    14:00 +40°C° 0 mm 5 m/S 694 mmHg 21%
    15:00 +40°C° 0 mm 5 m/S 693 mmHg 22%
    16:00 +39°C° 0 mm 6 m/S 692 mmHg 22%
    17:00 +39°C° 0 mm 6 m/S 692 mmHg 23%
    18:00 +36°C° 0.1 mm 5 m/S 691 mmHg 29%
    19:00 +34°C° 0.1 mm 5 m/S 691 mmHg 34%
    20:00 +32°C° 0.1 mm 5 m/S 691 mmHg 40%
    21:00 +30°C° 0 mm 6 m/S 692 mmHg 42%
    22:00 +30°C° 0 mm 7 m/S 692 mmHg 45%
    23:00 +29°C° 0 mm 8 m/S 693 mmHg 47%

    Morgen, 22 November, Donnerstag

    Zeit Temperatur Niederschläge Wind Luftdruck Luftfeuchtigkeit
    00:00 +28°C° 0.2 mm 8 m/S 693 mmHg 49%
    01:00 +28°C° 0.2 mm 7 m/S 693 mmHg 52%
    02:00 +27°C° 0.2 mm 7 m/S 693 mmHg 54%
    03:00 +24°C° 2.3 mm 8 m/S 694 mmHg 57%
    04:00 +22°C° 2.3 mm 9 m/S 695 mmHg 60%
    05:00 +19°C° 2.3 mm 10 m/S 696 mmHg 63%
    06:00 +19°C° 0.4 mm 11 m/S 697 mmHg 62%
    07:00 +19°C° 0.4 mm 12 m/S 698 mmHg 61%
    08:00 +19°C° 0.4 mm 13 m/S 700 mmHg 61%
    09:00 +21°C° 0 mm 12 m/S 700 mmHg 55%
    10:00 +22°C° 0 mm 11 m/S 701 mmHg 48%
    11:00 +24°C° 0 mm 10 m/S 701 mmHg 42%
    12:00 +26°C° 0 mm 10 m/S 701 mmHg 37%
    13:00 +26°C° 0 mm 9 m/S 701 mmHg 33%
    14:00 +27°C° 0 mm 9 m/S 700 mmHg 28%
    15:00 +27°C° 0 mm 8 m/S 700 mmHg 26%
    16:00 +27°C° 0 mm 8 m/S 699 mmHg 25%
    17:00 +27°C° 0 mm 8 m/S 699 mmHg 24%
    18:00 +24°C° 0 mm 7 m/S 699 mmHg 28%
    19:00 +22°C° 0 mm 7 m/S 699 mmHg 32%
    20:00 +21°C° 0 mm 7 m/S 699 mmHg 36%
    21:00 +20°C° 0 mm 7 m/S 699 mmHg 43%
    22:00 +17°C° 0 mm 7 m/S 700 mmHg 50%
    23:00 +16°C° 0 mm 7 m/S 700 mmHg 57%

    übermorgen, 23 November, Freitag

    Zeit Temperatur Niederschläge Wind Luftdruck Luftfeuchtigkeit
    00:00 +16°C° 0 mm 7 m/S 700 mmHg 60%
    01:00 +16°C° 0 mm 6 m/S 700 mmHg 62%
    02:00 +15°C° 0 mm 6 m/S 699 mmHg 64%
    03:00 +15°C° 0 mm 6 m/S 699 mmHg 67%
    04:00 +14°C° 0 mm 6 m/S 699 mmHg 69%
    05:00 +14°C° 0 mm 6 m/S 699 mmHg 72%
    06:00 +16°C° 0 mm 6 m/S 699 mmHg 66%
    07:00 +17°C° 0 mm 6 m/S 700 mmHg 61%
    08:00 +20°C° 0 mm 6 m/S 700 mmHg 55%
    09:00 +22°C° 0 mm 6 m/S 700 mmHg 49%
    10:00 +25°C° 0 mm 5 m/S 700 mmHg 43%
    11:00 +27°C° 0 mm 5 m/S 700 mmHg 37%
    12:00 +28°C° 0 mm 5 m/S 700 mmHg 35%
    13:00 +29°C° 0 mm 5 m/S 699 mmHg 34%
    14:00 +29°C° 0 mm 5 m/S 698 mmHg 32%
    15:00 +29°C° 0 mm 6 m/S 698 mmHg 35%
    16:00 +28°C° 0 mm 6 m/S 697 mmHg 38%
    17:00 +28°C° 0 mm 7 m/S 696 mmHg 41%
    18:00 +26°C° 0 mm 7 m/S 697 mmHg 49%
    19:00 +23°C° 0 mm 7 m/S 697 mmHg 56%
    20:00 +21°C° 0 mm 7 m/S 697 mmHg 64%
    21:00 +21°C° 0 mm 7 m/S 697 mmHg 66%
    22:00 +20°C° 0 mm 6 m/S 698 mmHg 68%
    23:00 +20°C° 0 mm 5 m/S 698 mmHg 70%

    24 November, Samstag

    Zeit Temperatur Niederschläge Wind Luftdruck Luftfeuchtigkeit
    00:00 +19°C° 0 mm 5 m/S 698 mmHg 71%
    01:00 +19°C° 0 mm 5 m/S 698 mmHg 73%
    02:00 +17°C° 0 mm 5 m/S 698 mmHg 74%
    03:00 +18°C° 0 mm 4 m/S 698 mmHg 75%
    04:00 +18°C° 0 mm 4 m/S 698 mmHg 75%
    05:00 +18°C° 0 mm 4 m/S 698 mmHg 75%
    06:00 +19°C° 0 mm 3 m/S 698 mmHg 70%
    07:00 +21°C° 0 mm 3 m/S 699 mmHg 65%
    08:00 +24°C° 0 mm 3 m/S 700 mmHg 60%
    09:00 +25°C° 0.1 mm 3 m/S 700 mmHg 54%
    10:00 +27°C° 0.1 mm 3 m/S 700 mmHg 48%
    11:00 +28°C° 0.1 mm 2 m/S 700 mmHg 43%
    12:00 +29°C° 0.2 mm 3 m/S 699 mmHg 41%
    13:00 +29°C° 0.2 mm 3 m/S 698 mmHg 39%
    14:00 +30°C° 0.2 mm 3 m/S 698 mmHg 38%
    15:00 +30°C° 0.2 mm 4 m/S 697 mmHg 40%
    16:00 +29°C° 0.2 mm 5 m/S 697 mmHg 41%
    17:00 +29°C° 0.2 mm 6 m/S 696 mmHg 43%
    18:00 +28°C° 0 mm 6 m/S 697 mmHg 49%
    19:00 +26°C° 0 mm 6 m/S 697 mmHg 54%
    20:00 +24°C° 0 mm 7 m/S 697 mmHg 60%
    21:00 +23°C° 0.3 mm 6 m/S 698 mmHg 63%
    22:00 +22°C° 0.3 mm 5 m/S 698 mmHg 67%
    23:00 +21°C° 0.3 mm 5 m/S 698 mmHg 70%

    25 November, Sonntag

    Zeit Temperatur Niederschläge Wind Luftdruck Luftfeuchtigkeit
    00:00 +21°C° 0.4 mm 5 m/S 698 mmHg 71%
    01:00 +21°C° 0.4 mm 4 m/S 698 mmHg 72%
    02:00 +20°C° 0.4 mm 4 m/S 697 mmHg 73%
    03:00 +20°C° 0.3 mm 4 m/S 697 mmHg 74%
    04:00 +20°C° 0.3 mm 4 m/S 697 mmHg 76%
    05:00 +19°C° 0.3 mm 4 m/S 697 mmHg 78%
    06:00 +21°C° 0.3 mm 4 m/S 698 mmHg 71%
    07:00 +23°C° 0.3 mm 4 m/S 699 mmHg 65%
    08:00 +25°C° 0.3 mm 5 m/S 699 mmHg 58%
    09:00 +27°C° 0.7 mm 4 m/S 699 mmHg 53%
    10:00 +28°C° 0.7 mm 4 m/S 699 mmHg 48%
    11:00 +29°C° 0.7 mm 4 m/S 699 mmHg 43%
    12:00 +30°C° 0.7 mm 4 m/S 698 mmHg 42%
    13:00 +30°C° 0.7 mm 3 m/S 698 mmHg 41%
    14:00 +30°C° 0.7 mm 3 m/S 697 mmHg 40%
    15:00 +30°C° 0.7 mm 3 m/S 697 mmHg 40%
    16:00 +30°C° 0.7 mm 4 m/S 696 mmHg 41%
    17:00 +30°C° 0.7 mm 5 m/S 696 mmHg 42%
    18:00 +28°C° 0.3 mm 5 m/S 696 mmHg 45%
    19:00 +27°C° 0.3 mm 4 m/S 695 mmHg 49%
    20:00 +26°C° 0.3 mm 4 m/S 695 mmHg 52%
    21:00 +25°C° 0.3 mm 5 m/S 696 mmHg 54%
    22:00 +25°C° 0.3 mm 5 m/S 696 mmHg 56%
    23:00 +23°C° 0.3 mm 5 m/S 697 mmHg 58%

    26 November, Montag

    Zeit Temperatur Niederschläge Wind Luftdruck Luftfeuchtigkeit
    00:00 +22°C° 2.3 mm 6 m/S 697 mmHg 67%
    01:00 +20°C° 2.3 mm 8 m/S 696 mmHg 75%
    02:00 +17°C° 2.3 mm 9 m/S 696 mmHg 83%
    03:00 +17°C° 3.7 mm 8 m/S 697 mmHg 84%
    04:00 +17°C° 3.7 mm 8 m/S 697 mmHg 85%
    05:00 +16°C° 3.7 mm 7 m/S 698 mmHg 86%
    06:00 +17°C° 1 mm 6 m/S 698 mmHg 81%
    07:00 +19°C° 1 mm 5 m/S 699 mmHg 76%
    08:00 +20°C° 1 mm 4 m/S 700 mmHg 70%
    09:00 +22°C° 0 mm 4 m/S 700 mmHg 63%
    10:00 +25°C° 0 mm 3 m/S 700 mmHg 56%
    11:00 +26°C° 0 mm 3 m/S 700 mmHg 49%
    12:00 +27°C° 0.1 mm 4 m/S 700 mmHg 47%
    13:00 +27°C° 0.1 mm 4 m/S 699 mmHg 46%
    14:00 +28°C° 0.1 mm 4 m/S 699 mmHg 45%
    15:00 +28°C° 0 mm 5 m/S 699 mmHg 46%
    16:00 +27°C° 0 mm 6 m/S 698 mmHg 47%
    17:00 +27°C° 0 mm 6 m/S 698 mmHg 48%
    18:00 +26°C° 0 mm 6 m/S 698 mmHg 53%
    19:00 +23°C° 0 mm 6 m/S 699 mmHg 58%
    20:00 +21°C° 0 mm 6 m/S 699 mmHg 63%
    21:00 +21°C° 0.1 mm 6 m/S 699 mmHg 66%
    22:00 +20°C° 0.1 mm 5 m/S 699 mmHg 69%
    23:00 +20°C° 0.1 mm 5 m/S 700 mmHg 71%
    Mehr zeigen